TimeCST,TemperatureF,Dew PointF,Humidity,Sea Level PressureIn,VisibilityMPH,Wind Direction,Wind SpeedMPH,Gust SpeedMPH,PrecipitationIn,Events,Conditions,WindDirDegrees,DateUTC
12:15 AM,55.2,33.1,43,29.80,10.0,SSE,11.5,21.9,N/A,,Clear,160,2013-03-04 06:15:00
12:35 AM,54.5,33.8,46,29.80,10.0,SSE,8.1,18.4,N/A,,Clear,160,2013-03-04 06:35:00
12:55 AM,53.6,34.0,47,29.79,10.0,North,-9999.0,-,N/A,,Clear,0,2013-03-04 06:55:00
1:55 AM,51.8,35.4,54,29.77,10.0,North,-9999.0,-,N/A,,Clear,0,2013-03-04 07:55:00
2:15 AM,51.8,36.3,56,29.76,10.0,South,11.5,16.1,N/A,,Clear,190,2013-03-04 08:15:00
2:35 AM,53.6,37.4,54,29.75,10.0,South,13.8,18.4,N/A,,Clear,180,2013-03-04 08:35:00
2:55 AM,53.8,37.8,55,29.75,10.0,South,10.4,16.1,N/A,,Clear,170,2013-03-04 08:55:00
3:15 AM,53.1,37.9,57,29.74,10.0,South,9.2,18.4,N/A,,Clear,180,2013-03-04 09:15:00
3:35 AM,52.9,38.3,58,29.74,10.0,South,10.4,18.4,N/A,,Clear,180,2013-03-04 09:35:00
3:55 AM,52.7,38.3,58,29.73,10.0,South,10.4,16.1,N/A,,Clear,190,2013-03-04 09:55:00
4:15 AM,52.7,38.7,59,29.73,10.0,South,6.9,-,N/A,,Clear,170,2013-03-04 10:15:00
4:35 AM,52.0,39.2,62,29.73,10.0,South,8.1,-,N/A,,Clear,190,2013-03-04 10:35:00
4:55 AM,54.7,41.2,60,29.72,10.0,South,12.7,19.6,N/A,,Clear,190,2013-03-04 10:55:00
5:15 AM,55.0,41.9,61,29.72,10.0,South,15.0,24.2,N/A,,Clear,190,2013-03-04 11:15:00
5:35 AM,55.0,42.4,63,29.71,10.0,South,11.5,26.5,N/A,,Clear,190,2013-03-04 11:35:00
5:55 AM,54.9,42.8,64,29.71,10.0,South,15.0,28.8,N/A,,Clear,190,2013-03-04 11:55:00
6:15 AM,54.5,43.0,65,29.71,10.0,South,12.7,19.6,N/A,,Clear,190,2013-03-04 12:15:00
6:35 AM,54.5,43.2,66,29.70,10.0,South,12.7,19.6,N/A,,Clear,190,2013-03-04 12:35:00
6:55 AM,54.5,43.7,67,29.70,10.0,South,12.7,20.7,N/A,,Clear,190,2013-03-04 12:55:00
7:15 AM,54.7,44.1,67,29.69,10.0,South,12.7,21.9,N/A,,Clear,190,2013-03-04 13:15:00
7:35 AM,54.9,44.6,68,29.69,10.0,South,12.7,21.9,N/A,,Clear,180,2013-03-04 13:35:00
7:55 AM,55.4,45.0,68,29.68,10.0,South,12.7,18.4,N/A,,Clear,190,2013-03-04 13:55:00
8:15 AM,55.9,45.5,68,29.69,10.0,South,13.8,24.2,N/A,,Clear,190,2013-03-04 14:15:00
8:35 AM,56.3,45.9,68,29.68,10.0,South,12.7,18.4,N/A,,Clear,190,2013-03-04 14:35:00
8:55 AM,57.2,46.4,67,29.68,10.0,SSW,16.1,26.5,N/A,,Clear,200,2013-03-04 14:55:00
9:15 AM,57.2,46.6,68,29.68,10.0,SSW,12.7,18.4,N/A,,Clear,200,2013-03-04 15:15:00
9:35 AM,57.4,46.8,68,29.67,10.0,SSW,10.4,20.7,N/A,,Clear,200,2013-03-04 15:35:00
9:55 AM,58.1,46.9,66,29.67,10.0,SSW,11.5,18.4,N/A,,Clear,200,2013-03-04 15:55:00
10:15 AM,58.6,46.9,65,29.67,10.0,SSW,15.0,20.7,N/A,,Clear,200,2013-03-04 16:15:00
10:35 AM,60.8,47.1,61,29.66,10.0,North,-9999.0,-,N/A,,Clear,0,2013-03-04 16:35:00
10:55 AM,62.4,46.9,57,29.65,10.0,SSW,12.7,21.9,N/A,,Clear,200,2013-03-04 16:55:00
11:15 AM,64.2,46.6,53,29.65,10.0,SSW,18.4,-,N/A,,Clear,200,2013-03-04 17:15:00
11:35 AM,64.9,46.4,51,29.65,10.0,North,-9999.0,-,N/A,,Clear,0,2013-03-04 17:35:00
11:55 AM,67.6,45.5,45,29.63,10.0,North,-9999.0,-,N/A,,Clear,0,2013-03-04 17:55:00
12:15 PM,68.9,45.0,42,29.63,10.0,North,-9999.0,-,N/A,,Clear,0,2013-03-04 18:15:00
12:55 PM,72.1,43.5,36,29.61,10.0,North,-9999.0,-,N/A,,Clear,0,2013-03-04 18:55:00
1:15 PM,74.7,42.4,31,29.59,10.0,North,-9999.0,-,N/A,,Clear,0,2013-03-04 19:15:00
1:35 PM,75.7,41.0,29,29.59,10.0,North,-9999.0,-,N/A,,Clear,0,2013-03-04 19:35:00
1:55 PM,76.5,41.4,28,29.60,10.0,SSW,16.1,-,N/A,,Clear,210,2013-03-04 19:55:00
2:15 PM,76.8,41.4,28,29.60,10.0,North,-9999.0,-,N/A,,Clear,0,2013-03-04 20:15:00
2:35 PM,77.7,40.3,26,29.60,10.0,North,-9999.0,-,N/A,,Clear,0,2013-03-04 20:35:00
2:55 PM,78.4,40.3,26,29.60,10.0,North,-9999.0,-,N/A,,Clear,0,2013-03-04 20:55:00
3:35 PM,80.1,40.8,25,29.59,10.0,North,-9999.0,-,N/A,,Clear,0,2013-03-04 21:35:00
3:55 PM,81.1,38.1,21,29.59,10.0,SSW,15.0,-,N/A,,Clear,210,2013-03-04 21:55:00
4:15 PM,81.1,39.6,23,29.58,10.0,North,-9999.0,-,N/A,,Clear,0,2013-03-04 22:15:00
4:35 PM,80.6,41.4,25,29.59,10.0,North,-9999.0,-,N/A,,Clear,0,2013-03-04 22:35:00
4:55 PM,79.9,41.7,26,29.59,10.0,North,-9999.0,-,N/A,,Clear,0,2013-03-04 22:55:00
5:15 PM,79.7,41.5,26,29.60,10.0,North,-9999.0,-,N/A,,Clear,0,2013-03-04 23:15:00
5:35 PM,77.9,44.4,30,29.60,10.0,North,-9999.0,-,N/A,,Clear,0,2013-03-04 23:35:00
5:55 PM,75.4,46.9,36,29.61,10.0,North,-9999.0,-,N/A,,Clear,0,2013-03-04 23:55:00
6:15 PM,73.6,47.3,39,29.62,10.0,SSW,8.1,-,N/A,,Clear,200,2013-03-05 00:15:00
6:35 PM,71.6,47.7,43,29.63,10.0,SSW,10.4,16.1,N/A,,Clear,210,2013-03-05 00:35:00
6:55 PM,71.1,47.7,43,29.64,10.0,SSW,9.2,-,N/A,,Clear,210,2013-03-05 00:55:00
7:15 PM,70.3,47.7,44,29.65,10.0,North,-9999.0,-,N/A,,Clear,0,2013-03-05 01:15:00
7:35 PM,69.8,47.7,45,29.66,10.0,North,-9999.0,-,N/A,,Clear,0,2013-03-05 01:35:00
7:55 PM,69.1,47.8,47,29.66,10.0,North,-9999.0,-,N/A,,Clear,0,2013-03-05 01:55:00
8:15 PM,67.8,47.8,49,29.66,10.0,SSW,8.1,-,N/A,,Clear,210,2013-03-05 02:15:00
8:35 PM,67.3,47.8,50,29.67,10.0,SW,8.1,-,N/A,,Clear,220,2013-03-05 02:35:00
8:55 PM,64.9,47.5,53,29.68,10.0,WNW,9.2,-,N/A,,Clear,290,2013-03-05 02:55:00
9:15 PM,63.1,47.7,57,29.69,10.0,WNW,6.9,-,N/A,,Clear,290,2013-03-05 03:15:00
9:35 PM,64.2,48.2,56,29.70,10.0,WNW,11.5,-,N/A,,Clear,290,2013-03-05 03:35:00
9:55 PM,62.6,48.2,59,29.70,10.0,NNW,6.9,-,N/A,,Clear,330,2013-03-05 03:55:00
10:15 PM,62.8,45.3,53,29.71,10.0,North,11.5,17.3,N/A,,Clear,360,2013-03-05 04:15:00
10:55 PM,63.5,41.0,44,29.74,10.0,NNW,13.8,18.4,N/A,,Clear,330,2013-03-05 04:55:00
11:15 PM,61.7,41.0,47,29.77,10.0,NNW,16.1,19.6,N/A,,Clear,330,2013-03-05 05:15:00
11:35 PM,60.1,41.0,49,29.77,10.0,NNW,18.4,26.5,N/A,,Scattered Clouds,330,2013-03-05 05:35:00
11:55 PM,57.9,40.1,52,29.78,10.0,NNW,19.6,29.9,N/A,,Clear,340,2013-03-05 05:55:00